Location: DARK SKY Beskydy - Park tmavé oblohy, www.darkskybeskydy.cz
(49.4926°N, 18.5016°E)
Time: 12:23:04
(UTC+02:00)

Vanguard 1 - Pass Details

Date: 29 February 2024
Orbit: 653 x 3825 km, 34.2° (Epoch: 12 April)

Event Time Altitude Azimuth Distance (km) Brightness Sun altitude
Rises 23:49:03 0° 273° (W) 6,675 14.4 -48.3°
Reaches altitude 10° 23:53:32 10° 266° (W) 6,020 14.0 -48.4°
Enters shadow 23:59:48 24° 251° (WSW) 5,333 13.5 -48.4°
Maximum altitude 00:10:45 36° 209° (SSW) 4,969 - -48.3°
Drops below altitude 10° 00:30:04 10° 153° (SSE) 6,666 - -47.9°
Sets 00:35:29 0° 145° (SE) 7,429 - -47.7°
